Regional Weather Roundup
Issued by NWS Sterling, VA

Home | Current Version | Previous Version | Graphics & Text | Print | Product List | Glossary On
Versions: 1 2 3 4 5 6 7 8 9 10 11 12 13 14 15 16 17 18 19 20 21 22 23 24 25 26 27 28
000
ASUS41 KLWX 090610
RWRLWX

REGIONAL WEATHER ROUNDUP
NATIONAL WEATHER SERVICE BALTIMORE MD/WASHINGTON DC
100 AM EST FRI DEC 09 2016

Note: "FAIR" indicates few or no clouds below 12,000 feet
with no significant weather and/or obstructions to visibility.
 TC=TEMPERATURE CELSIUS

 * =Non NWS site. Station does not report precipitation (e.g. rain,
    snow, etc.), thunder, or fog.

DCZ001-MDZ009-015-VAZ040>042-051-053>054-090700-
WASHINGTON METRO

CITY           SKY/WX    TMP DP  RH WIND       PRES   REMARKS
WASHINGTON NAT PTCLDY    33  14  45 NW12G23   30.22R WCI  24
DULLES         PTCLDY    31  11  43 NW23G31   30.21R WCI  18
ANDREWS AFB    CLEAR     32  13  46 NW16G26   30.19R WCI  21
FT BELVOIR     CLEAR     33  12  43 NW16      30.21R WCI  22
QUANTICO       CLEAR     32  17  54 N9        30.24R WCI  24
COLLEGE PARK*  PTCLDY    32  14  47 NW14G23   30.20R WCI  22
LEESBURG*      MOCLDY    32  19  59 W9G18     30.22S WCI  24
GAITHERSBURG*  PTCLDY    28  10  47 W16G23    30.22S WCI  17

$$

MDZ006>007-011-014-090700-
BALTIMORE METRO

CITY           SKY/WX    TMP DP  RH WIND       PRES   REMARKS
BWI AIRPORT    PTCLDY    31  16  54 W15G25    30.17S WCI  20
MD SCIENCE CTR   N/A     33  13  43 MISG      30.17R
ANNAPOLIS      CLEAR     34  17  50 W10G17    30.18S WCI  26
FORT MEADE*    CLEAR     32  18  55 W9G22     30.20F WCI  24

$$

MDZ012-015-019>023-090700-
MARYLAND EASTERN SHORE

CITY           SKY/WX    TMP DP  RH WIND       PRES   REMARKS
OCEAN CITY     CLEAR     33  18  53 NW13      30.15R WCI  24
SALISBURY      CLEAR     32  18  56 NW9G17    30.16R WCI  24
BAY BRIDGE AP* CLEAR     32  18  55 MISG      30.18S
EASTON*        CLEAR     34  16  47 NW17      30.21R WCI  23

$$

MDZ017>025-090700-
SOUTHERN MARYLAND

CITY           SKY/WX    TMP DP  RH WIND       PRES   REMARKS
PATUXENT RIVER PTCLDY    34  18  52 N18       30.19R WCI  23
ST INIGOES     CLEAR     35  16  45 VRB7G23   30.19R
LEONARDTOWN*   CLEAR     32  16  51 W6        30.21S

$$

MDZ003>005-090700-
NORTH CENTRAL MARYLAND

CITY           SKY/WX    TMP DP  RH WIND       PRES   REMARKS
FREDERICK*     PTCLDY    30  18  59 W13G21    30.23R WCI  20
HAGERSTOWN APT PTCLDY    28  10  46 W12       30.18R WCI  18
WESTMINSTER*     N/A     27  12  54 W13         N/A  WCI  16

$$

MDZ501>502-090700-
WESTERN MARYLAND

CITY           SKY/WX    TMP DP  RH WIND       PRES   REMARKS
OAKLAND*       CLOUDY    14  10  85 W14G23    30.10R WCI  -1
CUMBERLAND*    NOT AVBL

$$

VAZ025>031-090700-
SHENANDOAH VALLEY

CITY           SKY/WX    TMP DP  RH WIND       PRES   REMARKS
WINCHESTER*    CLOUDY    28  14  54 NW15      30.22R WCI  17
FRONT ROYAL*   CLOUDY    30  14  51 NW9G22    30.22R WCI  22
LURAY*         CLOUDY    32  19  59 W5        30.21R
NEW MARKET*    CLOUDY    30  10  44 NW7G17    30.21R
STAUNTON*      CLOUDY    28  13  52 NW7       30.23R
WAYNESBORO*    CLOUDY    29  11  46 W7        30.19R

$$

WVZ021-048>050-054>055-090700-
EASTERN WEST VIRGINIA PANHANDLE

CITY           SKY/WX    TMP DP  RH WIND       PRES   REMARKS
MARTINSBURG    CLEAR     28  13  53 W15G24    30.21S WCI  16
PETERSBURG*    CLOUDY    29  13  52 W12G20    30.26R WCI  19

$$

VAZ036>039-050-090700-
CENTRAL FOOTHILLS

CITY           SKY/WX    TMP DP  RH WIND       PRES   REMARKS
CHARLOTTESVILL PTCLDY    34  13  41 VRB3      30.21R
CULPEPER*      CLEAR     32  15  48 CALM      30.22S
ORANGE*          N/A     32  18  55 CALM      30.23R
GORDONSVILLE*  FAIR      33  14  46 CALM      30.20S
WARRENTON*     FAIR      31  13  48 CALM      30.21R

$$

VAZ055>057-090700-
NORTH AND CENTRAL PIEDMONT

CITY           SKY/WX    TMP DP  RH WIND       PRES   REMARKS
FREDERICKSBRG* PTCLDY    31  20  64 N5        30.21R
STAFFORD*      CLEAR     28  18  65 NE6       30.26R

$$

NCZ024-NYZ072-PAZ021-071-VAZ022-071-090700-
OTHER REGIONAL OBSERVATIONS

CITY           SKY/WX    TMP DP  RH WIND       PRES   REMARKS
NEW YORK CITY    N/A     36  16  44 MISG        N/A
PHILADELPHIA   PTCLDY    31  15  52 W16       30.12S WCI  20
PITTSBURGH     FLURRIES  24  17  74 W13G23    30.22S WCI  12
ROANOKE        CLOUDY    31  13  47 W12       30.28R WCI  22
RICHMOND       MOCLDY    36  13  38 NW12      30.20S WCI  28
RALEIGH        PTCLDY    38  11  32 VRB6      30.24S

$$

ANZ530>537-090700-
MARINE OBSERVATIONS

STATION/POSITION TIME  TEMP    WIND        PRES
                       AIR SEA DIR/SP/G
                 (UTC) (F)     (DEG/KT/KT) (MB)
THOMAS PT LIGHT  0600   34 46  290/ 20/ 23   N/A
BALT KEY BRIDGE  0536          270/ 16/ 19 1021.5S
COVE POINT       0536          340/ 24/ 29 1022.6S
LEWISETTA        0536          340/ 13/ 20 1022.2R
SOLOMONS ISLAND  0536          330/ 13/ 17   N/A
PINEY POINT      0536           10/ 17/ 21   N/A

$$





USA.gov is the U.S. government's official web portal to all federal, state and local government web resources and services.